This demonstration page uses our WeatherBlox Daily Observations layout. Learn more.

Left ArrowRight Arrow

39.51506, -84.39828

Hourly Observations for February 15, 2017

Temp ( °F °C ) Dew Point ( °F °C ) Humidity (%) Winds ( mph kmh ) Pressure ( in mb ) Visibility ( mi km ) Precip ( " mm )
12:53 am 00:53 Clear 42 5.6 29 -1.7 60 60 W 8 13 29.67 1005 10 16 0.00 0.00
1:53 am 01:53 Clear 41 5 30 -1.1 65 65 WNW 10 17 29.66 1004 10 16 0.00 0.00
2:53 am 02:53 Clear 39 3.9 29 -1.7 67 67 WNW 10 17 29.67 1005 10 16 0.00 0.00
3:38 am 03:38 Mostly Cloudy 39 3.9 29 -1.7 67 67 NW 12 19 29.71 1006 10 16 0.00 0.00
3:53 am 03:53 Mostly Cloudy 38 3.3 29 -1.7 70 70 NW 13 20 29.68 1005 10 16 0.00 0.00
4:51 am 04:51 Mostly Cloudy 36 2 25 -4 65 65 N 10 17 29.71 1006 10 16 0.00 0.00
4:53 am 04:53 Mostly Cloudy 35 1.7 25 -3.9 67 67 NNW 13 20 29.70 1006 10 16 0.00 0.00
5:53 am 05:53 Mostly Clear 34 1.1 22 -5.6 61 61 NNW 10 17 29.70 1006 10 16 0.00 0.00
6:53 am 06:53 Partly Cloudy 33 0.6 23 -5 66 66 NW 9 15 29.72 1007 10 16 0.00 0.00
7:53 am 07:53 Sunny 32 0 20 -6.7 61 61 NW 12 19 29.74 1007 10 16 0.00 0.00
8:53 am 08:53 Sunny 33 0.6 17 -8.3 52 52 NNW 15 24 29.77 1008 10 16 0.00 0.00
9:53 am 09:53 Mostly Sunny 34 1.1 19 -7.2 54 54 NNW 16 26 29.79 1009 10 16 0.00 0.00
10:53 am 10:53 Partly Cloudy 36 2.2 19 -7.2 50 50 NW 21 33 29.80 1009 10 16 0.00 0.00
11:53 am 11:53 Cloudy 34 1.1 20 -6.7 56 56 NW 16 26 29.82 1010 10 16 0.00 0.00
12:53 pm 12:53 Cloudy 34 1.1 20 -6.7 56 56 WNW 16 26 29.82 1010 10 16 0.00 0.00
1:53 pm 13:53 Cloudy 36 2.2 21 -6.1 55 55 WNW 15 24 29.80 1009 10 16 0.00 0.00
2:53 pm 14:53 Mostly Cloudy 38 3.3 21 -6.1 51 51 WNW 14 22 29.79 1009 10 16 0.00 0.00
3:53 pm 15:53 Partly Cloudy 37 2.8 20 -6.7 50 50 NW 17 28 29.80 1009 10 16 0.00 0.00
4:53 pm 16:53 Mostly Cloudy 38 3.3 20 -6.7 48 48 NW 13 20 29.81 1009 10 16 0.00 0.00
5:53 pm 17:53 Mostly Sunny 36 2.2 17 -8.3 46 46 NW 17 28 29.83 1010 10 16 0.00 0.00
6:53 pm 18:53 Mostly Clear 34 1.1 19 -7.2 54 54 NW 8 13 29.84 1011 10 16 0.00 0.00
7:53 pm 19:53 Clear 32 0 19 -7.2 59 59 NNW 9 15 29.88 1012 10 16 0.00 0.00
8:53 pm 20:53 Clear 31 -0.6 19 -7.2 61 61 N 9 15 29.90 1013 10 16 0.00 0.00
9:53 pm 21:53 Mostly Clear 30 -1.1 16 -8.9 56 56 NNW 10 17 29.91 1013 10 16 0.00 0.00
10:53 pm 22:53 Mostly Cloudy 30 -1.1 17 -8.3 58 58 NW 8 13 29.91 1013 10 16 0.00 0.00
11:53 pm 23:53 Clear 29 -1.7 17 -8.3 61 61 WNW 7 11 29.90 1013 10 16 0.00 0.00

Powered by AerisWeather